Stansted, United Kingdom

10:55 PM BST on August 24, 2016 (GMT +0100)
Stansted

Weather History for EGSS - November, 2012

Change the Weather History Date:

Sunday, November 18, 2012

  Actual Average Record
Temperature  
Mean Temperature 39 °F -  
Max Temperature 46 °F 44 °F 59 °F (2015)
Min Temperature 32 °F 35 °F 28 °F (1996)
Degree Days  
Heating Degree Days 26    
Moisture  
Dew Point 35 °F    
Average Humidity 87    
Maximum Humidity 100    
Minimum Humidity 66    
Precipitation  
Precipitation 0.00 in - - ()
Sea Level Pressure  
Sea Level Pressure 29.95 in    
Wind  
Wind Speed 3 mph ()    
Max Wind Speed 8 mph    
Max Gust Speed -    
Visibility 6.2 miles    
Events      
Averages and records for this station are not official NWS values.
T = Trace of Precipitation, MM = Missing Value Source: Averaged Metar Reports

Daily Weather History Graph

Daily Weather History Graph

Search for Another Location

Airport or City:

Trip Planner

Search our weather history database for the weather conditions in past years. The results will help you decide how hot, cold, wet, or windy it might be!

Date:

Astronomy

Nov. 18, 2012 Rise Set
Actual Time 7:24 AM GMT 4:03 PM GMT
Civil Twilight 6:46 AM GMT 4:41 PM GMT
Nautical Twilight 6:04 AM GMT 5:23 PM GMT
Astronomical Twilight 5:25 AM GMT 6:02 PM GMT
Moon 11:35 AM GMT (11/18) 9:14 PM GMT (11/18)
Length of Visible Light 9h 55m
Length of Day
8h 39m
Waxing Crescent, 28% of the Moon is Illuminated
Nov 18
Waxing Crescent
Nov 20
First Quarter
Nov 28
Full
Dec 6
Last Quarter
Dec 13
New

Hourly Weather History & Observations

Time (GMT) Temp. Windchill Dew Point Humidity Pressure Visibility Wind Dir Wind Speed Gust Speed Precip Events Conditions
12:20 AM 41.0 °F 39.0 °F 39.2 °F 93% 29.86 in - NW 3.5 mph - N/A   Clear
12:50 AM 39.2 °F 37.0 °F 37.4 °F 93% 29.86 in - WNW 3.5 mph - N/A   Clear
1:20 AM 39.2 °F 37.0 °F 37.4 °F 93% 29.86 in - WNW 3.5 mph - N/A   Clear
1:50 AM 37.4 °F 33.8 °F 35.6 °F 93% 29.86 in - WNW 4.6 mph - N/A   Clear
2:20 AM 37.4 °F 34.9 °F 35.6 °F 93% 29.89 in - WNW 3.5 mph - N/A   Clear
2:50 AM 37.4 °F - 35.6 °F 93% 29.89 in - WNW 2.3 mph - N/A   Clear
3:20 AM 35.6 °F - 35.6 °F 100% 29.89 in - West 2.3 mph - N/A   Clear
3:50 AM 35.6 °F - 33.8 °F 93% 29.89 in - West 2.3 mph - N/A   Clear
4:20 AM 35.6 °F - 33.8 °F 93% 29.89 in 6.2 mi WNW 2.3 mph - N/A   Unknown
4:50 AM 35.6 °F 32.8 °F 33.8 °F 93% 29.89 in - NW 3.5 mph - N/A   Clear
5:20 AM 33.8 °F - 33.8 °F 100% 29.89 in - NW 2.3 mph - N/A   Clear
5:50 AM 35.6 °F - 33.8 °F 93% 29.92 in - NW 2.3 mph - N/A   Clear
6:20 AM 33.8 °F - 33.8 °F 100% 29.92 in - Calm Calm - N/A   Clear
6:50 AM 33.8 °F - 32.0 °F 93% 29.92 in - NNW 2.3 mph - N/A   Clear
7:20 AM 32.0 °F 28.7 °F 32.0 °F 100% 29.92 in - NNW 3.5 mph - N/A   Clear
7:50 AM 32.0 °F - 32.0 °F 100% 29.95 in - NW 2.3 mph - N/A   Clear
8:20 AM 33.8 °F - 32.0 °F 93% 29.95 in - Calm Calm - N/A   Clear
8:50 AM 35.6 °F - 33.8 °F 93% 29.95 in - West 2.3 mph - N/A   Clear
9:20 AM 37.4 °F - 35.6 °F 93% 29.95 in - Variable 2.3 mph - N/A   Clear
9:50 AM 39.2 °F - 35.6 °F 87% 29.95 in - Variable 2.3 mph - N/A   Clear
10:20 AM 41.0 °F 38.0 °F 37.4 °F 87% 29.98 in - WNW 4.6 mph - N/A   Clear
10:50 AM 42.8 °F 41.1 °F 37.4 °F 81% 29.98 in - Variable 3.5 mph - N/A   Clear
11:20 AM 44.6 °F 42.2 °F 39.2 °F 81% 29.98 in - West 4.6 mph - N/A   Clear
11:50 AM 44.6 °F 43.1 °F 37.4 °F 76% 29.98 in - Variable 3.5 mph - N/A   Clear
12:20 PM 46.4 °F - 37.4 °F 71% 29.98 in 6.2 mi Calm Calm - N/A   Partly Cloudy
12:50 PM 46.4 °F - 37.4 °F 71% 29.98 in 6.2 mi Variable 2.3 mph - N/A   Partly Cloudy
1:20 PM 46.4 °F 45.2 °F 35.6 °F 66% 29.98 in 6.2 mi Variable 3.5 mph - N/A   Partly Cloudy
1:50 PM 46.4 °F 45.2 °F 35.6 °F 66% 29.98 in 6.2 mi Variable 3.5 mph - N/A   Partly Cloudy
2:20 PM 46.4 °F 45.2 °F 35.6 °F 66% 29.98 in - Variable 3.5 mph - N/A   Clear
2:50 PM 44.6 °F 42.2 °F 37.4 °F 76% 29.98 in - SSW 4.6 mph - N/A   Clear
3:20 PM 42.8 °F 40.1 °F 35.6 °F 76% 29.98 in - SW 4.6 mph - N/A   Clear
3:50 PM 42.8 °F 41.1 °F 35.6 °F 76% 29.98 in - South 3.5 mph - N/A   Clear
4:20 PM 42.8 °F 41.1 °F 35.6 °F 76% 29.98 in - SSE 3.5 mph - N/A   Clear
4:50 PM 41.0 °F 38.0 °F 35.6 °F 81% 29.98 in - SE 4.6 mph - N/A   Clear
5:20 PM 41.0 °F 38.0 °F 35.6 °F 81% 29.98 in - SE 4.6 mph - N/A   Clear
5:50 PM 39.2 °F 35.9 °F 33.8 °F 81% 30.01 in - SSE 4.6 mph - N/A   Clear
6:20 PM 39.2 °F 35.0 °F 33.8 °F 81% 30.01 in - SSE 5.8 mph - N/A   Clear
6:50 PM 39.2 °F 35.9 °F 35.6 °F 87% 30.01 in - SSE 4.6 mph - N/A   Clear
7:20 PM 37.4 °F 32.8 °F 33.8 °F 87% 30.01 in - SSE 5.8 mph - N/A   Clear
7:50 PM 39.2 °F 35.0 °F 33.8 °F 81% 30.01 in - SSE 5.8 mph - N/A   Clear
8:20 PM 37.4 °F 32.1 °F 35.6 °F 93% 30.01 in - SSE 6.9 mph - N/A   Clear
8:50 PM 39.2 °F 35.0 °F 35.6 °F 87% 29.98 in - SSE 5.8 mph - N/A   Clear
9:20 PM 37.4 °F 32.8 °F 35.6 °F 93% 29.98 in - SSE 5.8 mph - N/A   Clear
9:50 PM 37.4 °F 31.4 °F 33.8 °F 87% 29.98 in - SSE 8.1 mph - N/A   Clear
10:20 PM 37.4 °F 32.1 °F 33.8 °F 87% 29.98 in - SSE 6.9 mph - N/A   Clear
10:50 PM 37.4 °F 31.4 °F 33.8 °F 87% 29.98 in 6.2 mi SSE 8.1 mph - N/A   Unknown
11:20 PM 35.6 °F 30.7 °F 33.8 °F 93% 29.98 in - SSE 5.8 mph - N/A   Clear
11:50 PM 35.6 °F 29.9 °F 33.8 °F 93% 29.98 in - SSE 6.9 mph - N/A   Clear